FENGYUN1
1 25730U 99025A   10315.44730401  .00001258  00000-0  75833-3 0  1813
2 25730 098.7995 276.6655 0019899 209.4742 150.5356 14.08395143592411
OKEAN-0
1 25860U 99039A   10314.53577532  .00000097  00000-0  22206-4 0 01485
2 25860 097.8533 282.4231 0001238 045.7158 314.4151 14.73679815608457
NOAA-16
1 26536U 00055A   10316.05236565  .00000178  00000-0  12156-3 0   664
2 26536 099.1628 336.9572 0009809 283.2852 076.7247 14.12584619522700
NOAA-17
1 27453U 02032A   10314.76019264 -.00000025  00000-0  73238-5 0 00551
2 27453 098.4122 359.1613 0012678 070.8742 289.3808 14.24206944435566
NOAA-18
1 28654U 05018A   10314.76265235  .00000367  00000-0  22729-3 0 05452
2 28654 098.9681 260.7156 0014439 003.6246 356.5022 14.11407582282117
NOAA-19
1 33591U 09005A   10314.85356473 -.00000135  00000-0 -50715-4 0 07413
2 33591 098.8044 253.9473 0013371 232.5476 127.4495 14.11099597090594
HUBBLE
1 20580U 90037B   10315.25682231  .00000589  00000-0  32150-4 0  6740
2 20580 028.4709 359.6735 0003076 323.1425 036.8970 15.01086716926871
ISS
1 25544U 98067A   10316.38599537  .00024931  00000-0  18492-3 0  2629
2 25544 051.6453 192.2553 0007844 187.4989 171.9411 15.72692273686774
CO-58
1 28895U 05043F   10315.40546720  .00000327  00000-0  77431-4 0  7257
2 28895 097.9937 194.8261 0017912 180.1255 179.9918 14.59961430268463
FALCON
1 30776U 07006E   10314.94227193  .00000962  00000-0  71361-4 0 09676
2 30776 035.4338 233.1511 0001401 333.6075 026.4575 15.03936037202167
MAST
1 31126U 07012K   10314.56511430  .00000275  00000-0  72072-4 0 00084
2 31126 097.9219 348.8831 0095030 130.5643 230.3900 14.53640389189329
CAPE1
1 31130U 07012P   10315.99791442  .00000248  00000-0  67373-4 0   291
2 31130 097.9215 347.3636 0103701 135.2832 225.6768 14.52248903189115
COMPASS
1 32787U 08021E   10315.96935591  .00000731  00000-0  98572-4 0  8282
2 32787 097.8781 018.5670 0015819 160.8655 199.3106 14.82035921137387
AAUSAT2
1 32788U 08021F   10315.89020726  .00000829  00000-0  11050-3 0  8171
2 32788 097.8789 018.6515 0015398 161.4675 198.7072 14.82189331137386
DO-64
1 32789U 08021G   10315.88089186  .00001231  00000-0  15996-3 0  8346
2 32789 097.8853 019.2958 0015850 160.1800 200.0108 14.82419852137387
CO-66
1 32791U 08021J   10314.32577096  .00000083  00000-0  17214-4 0 08192
2 32791 097.8802 016.9437 0015920 164.6765 195.4924 14.81789807137097
RS-30
1 32953U 08025A   10316.06860192  .00000010  00000-0  00000 0 0  2083
2 32953 082.4988 297.7209 0019509 136.1000 224.1632 12.43009222112115
TACSAT-3
1 35001U 09028A   10314.74981748  .00007524  00000-0  16749-3 0 04426
2 35001 040.4545 052.7320 0022552 019.6686 340.4996 15.43502525083271
PHARMSAT
1 35002U 09028B   10315.56696832  .00006930  00000-0  15263-3 0  4010
2 35002 040.4686 045.3982 0024696 028.4528 331.7625 15.43855331 83429
HAWKSAT1
1 35003U 09028C   10315.55687047  .00016817  00000-0  30487-3 0  4355
2 35003 040.4580 034.9094 0022704 051.3050 308.9791 15.48887113 83545
CP6
1 35004U 09028D   10316.21829784  .00021143  00000-0  36062-3 0  4348
2 35004 040.4594 028.4353 0021720 062.1650 298.1441 15.50525360 83661
AEROCUB3
1 35005U 09028E   10316.24390009  .00149423  00000-0  11914-2 0  5177
2 35005 040.4648 012.6913 0022667 094.3489 265.9928 15.69527473 83846
CASTOR
1 35694U 09038F   10230.44082147  .07179566  12689-4  99310-4 0  6559
2 35694 051.5930 222.0149 0004218 308.0851 053.0105 16.48877011 61107
METEOR-M
1 35865U 09049A   10316.05541018  .00000176  00000-0  10000-3 0  8261
2 35865 098.7396 008.6516 0002395 321.9339 038.1664 14.21832865 59738
RS-38
1 35869U 09049E   10316.08099551  .00000177  00000-0  10000-3 0  8382
2 35869 098.7381 008.7174 0004079 307.5985 052.4797 14.21993052 59748
